| time (UTC) | temp F | wind direction | speed knots | gust knots | rain 1hr in | rain 24hr in | rain mn in | humidity % | barometer mb |
| 20260505153041 | 71 | 241 | 0.0 | 3.5 | 0.00 | 0.00 | 0.00 | 62 | 1016.6 |
| 20260505151555 | 69 | 238 | 0.9 | 3.5 | 0.00 | 0.00 | 0.00 | 66 | 1016.5 |
| 20260505124542 | 57 | 0 | 0.9 | 2.6 | 0.00 | 0.00 | 0.00 | 68 | 1016.7 |
| 20260505123041 | 55 | 0 | 0.0 | 1.7 | 0.00 | 0.00 | 0.00 | 53 | 1016.6 |
| 20260505121558 | 54 | 0 | 0.0 | 0.0 | 0.00 | 0.00 | 0.00 | 50 | 1016.7 |
| 20260505120044 | 53 | 0 | 0.0 | 0.0 | 0.00 | 0.00 | 0.00 | 51 | 1016.5 |
| 20260505114543 | 53 | 0 | 0.0 | 0.0 | 0.00 | 0.00 | 0.00 | 56 | 1016.4 |
| 20260505113041 | 52 | 0 | 0.0 | 0.0 | 0.00 | 0.00 | 0.00 | 58 | 1016.4 |
| 20260505111542 | 52 | 0 | 0.0 | 0.0 | 0.00 | 0.00 | 0.00 | 60 | 1016.2 |
| 20260505101552 | 52 | 0 | 0.0 | 0.0 | 0.00 | 0.00 | 0.00 | 69 | 1015.6 |
| 20260505100041 | 52 | 0 | 0.0 | 0.0 | 0.00 | 0.00 | 0.00 | 71 | 1015.5 |
| 20260505094540 | 53 | 0 | 0.0 | 0.0 | 0.00 | 0.00 | 0.00 | 71 | 1015.4 |
| 20260505093044 | 53 | 0 | 0.0 | 0.0 | 0.00 | 0.00 | 0.00 | 72 | 1015.5 |
| 20260505091544 | 53 | 0 | 0.0 | 0.0 | 0.00 | 0.00 | 0.00 | 74 | 1015.3 |
| 20260505090057 | 53 | 0 | 0.0 | 0.0 | 0.00 | 0.00 | 0.00 | 75 | 1015.4 |
| 20260505084548 | 53 | 0 | 0.0 | 0.0 | 0.00 | 0.00 | 0.00 | 77 | 1015.3 |
| 20260505083040 | 54 | 0 | 0.0 | 0.0 | 0.00 | 0.00 | 0.00 | 78 | 1015.3 |
| 20260505081545 | 54 | 0 | 0.0 | 0.0 | 0.00 | 0.00 | 0.00 | 78 | 1015.1 |
| 20260505080042 | 55 | 0 | 0.0 | 0.0 | 0.00 | 0.00 | 0.00 | 78 | 1015.0 |
| 20260505074545 | 55 | 0 | 0.0 | 0.0 | 0.00 | 0.00 | 0.00 | 78 | 1014.9 |
| 20260505073041 | 55 | 0 | 0.0 | 0.0 | 0.00 | 0.00 | 0.00 | 79 | 1015.0 |
| 20260505071539 | 55 | 0 | 0.0 | 0.0 | 0.00 | 0.00 | 0.00 | 78 | 1014.9 |
| 20260505070043 | 56 | 0 | 0.0 | 0.0 | 0.00 | 0.00 | 0.00 | 78 | 1014.9 |
| 20260505064543 | 57 | 0 | 0.0 | 0.0 | 0.00 | 0.00 | 0.00 | 78 | 1014.9 |
| 20260505063043 | 57 | 0 | 0.0 | 0.0 | 0.00 | 0.00 | 0.00 | 77 | 1014.8 |
| 20260505061546 | 58 | 0 | 0.0 | 0.0 | 0.00 | 0.00 | 0.00 | 77 | 1014.9 |
| 20260505060042 | 58 | 0 | 0.0 | 0.0 | 0.00 | 0.00 | 0.00 | 76 | 1014.9 |
| 20260505054543 | 59 | 0 | 0.0 | 0.0 | 0.00 | 0.00 | 0.00 | 76 | 1014.9 |
| 20260505053049 | 59 | 0 | 0.0 | 0.0 | 0.00 | 0.00 | 0.00 | 75 | 1014.9 |
| 20260505051545 | 59 | 0 | 0.0 | 0.9 | 0.00 | 0.00 | 0.00 | 74 | 1015.1 |
| 20260505041544 | 61 | 0 | 0.0 | 1.7 | 0.00 | 0.00 | 0.00 | 71 | 1015.0 |
| 20260505040045 | 62 | 0 | 0.0 | 1.7 | 0.00 | 0.00 | 0.00 | 70 | 1015.1 |
| 20260505034540 | 62 | 360 | 0.0 | 1.7 | 0.00 | 0.00 | 0.00 | 68 | 1015.1 |
| 20260505033102 | 63 | 360 | 0.0 | 1.7 | 0.00 | 0.00 | 0.00 | 68 | 1015.0 |
| 20260505031540 | 63 | 360 | 0.0 | 2.6 | 0.00 | 0.00 | 0.00 | 66 | 1014.9 |
| 20260505030044 | 64 | 360 | 0.9 | 2.6 | 0.00 | 0.00 | 0.00 | 65 | 1014.9 |
| 20260505024543 | 64 | 360 | 0.9 | 4.3 | 0.00 | 0.00 | 0.00 | 65 | 1015.0 |
| 20260505023049 | 64 | 360 | 0.9 | 1.7 | 0.00 | 0.00 | 0.00 | 66 | 1014.9 |
| 20260505021540 | 65 | 360 | 0.9 | 2.6 | 0.00 | 0.00 | 0.00 | 66 | 1014.8 |
| 20260505020046 | 64 | 235 | 0.9 | 4.3 | 0.00 | 0.00 | 0.00 | 67 | 1014.6 |
| 20260505014539 | 63 | 0 | 0.0 | 2.6 | 0.00 | 0.00 | 0.00 | 69 | 1014.5 |
| 20260505013044 | 63 | 170 | 0.0 | 1.7 | 0.00 | 0.00 | 0.00 | 67 | 1014.2 |
| 20260505011542 | 64 | 0 | 0.0 | 1.7 | 0.00 | 0.00 | 0.00 | 66 | 1014.0 |
| 20260505010044 | 64 | 0 | 0.0 | 0.0 | 0.00 | 0.00 | 0.00 | 64 | 1013.8 |
| 20260505004548 | 65 | 0 | 0.0 | 0.0 | 0.00 | 0.00 | 0.00 | 62 | 1013.5 |
| 20260505003041 | 66 | 0 | 0.0 | 0.0 | 0.00 | 0.00 | 0.00 | 61 | 1013.4 |
| 20260505001540 | 67 | 0 | 0.0 | 0.0 | 0.00 | 0.00 | 0.00 | 58 | 1013.4 |
| 20260505000048 | 68 | 0 | 0.0 | 0.0 | 0.00 | 0.00 | 0.00 | 57 | 1013.3 |
| 20260504234610 | 69 | 0 | 0.0 | 0.9 | 0.00 | 0.00 | 0.00 | 60 | 1013.1 |
| 20260504233041 | 70 | 0 | 0.0 | 1.7 | 0.00 | 0.00 | 0.00 | 58 | 1012.8 |
| 20260504231552 | 70 | 0 | 0.0 | 3.5 | 0.00 | 0.00 | 0.00 | 55 | 1012.5 |
| 20260504230040 | 71 | 0 | 0.0 | 0.9 | 0.00 | 0.00 | 0.00 | 51 | 1012.5 |
| 20260504224544 | 72 | 0 | 0.0 | 1.7 | 0.00 | 0.00 | 0.00 | 55 | 1012.5 |
| 20260504223042 | 73 | 0 | 0.0 | 1.7 | 0.00 | 0.00 | 0.00 | 52 | 1012.4 |
| 20260504221544 | 74 | 0 | 0.0 | 1.7 | 0.00 | 0.00 | 0.00 | 44 | 1012.5 |
| 20260504220042 | 75 | 25 | 0.0 | 3.5 | 0.00 | 0.00 | 0.00 | 46 | 1012.5 |
| 20260504214544 | 75 | 231 | 0.9 | 4.3 | 0.00 | 0.00 | 0.00 | 40 | 1012.7 |
| 20260504213051 | 75 | 167 | 0.9 | 3.5 | 0.00 | 0.00 | 0.00 | 42 | 1012.7 |
| 20260504211546 | 75 | 211 | 0.9 | 2.6 | 0.00 | 0.00 | 0.00 | 39 | 1012.7 |
| 20260504210053 | 75 | 213 | 0.9 | 3.5 | 0.00 | 0.00 | 0.00 | 34 | 1012.8 |
| 20260504204619 | 76 | 235 | 0.9 | 4.3 | 0.00 | 0.00 | 0.00 | 33 | 1012.9 |
| 20260504203040 | 75 | 237 | 1.7 | 4.3 | 0.00 | 0.00 | 0.00 | 34 | 1013.0 |
| 20260504201540 | 76 | 233 | 0.9 | 4.3 | 0.00 | 0.00 | 0.00 | 31 | 1013.4 |
| 20260504200046 | 75 | 0 | 0.0 | 6.1 | 0.00 | 0.00 | 0.00 | 32 | 1013.4 |
| 20260504194550 | 75 | 238 | 0.0 | 3.5 | 0.00 | 0.00 | 0.00 | 34 | 1013.4 |
| 20260504193045 | 75 | 252 | 0.9 | 3.5 | 0.00 | 0.00 | 0.00 | 37 | 1013.4 |
| 20260504191543 | 75 | 236 | 1.7 | 4.3 | 0.00 | 0.00 | 0.00 | 39 | 1013.8 |
| 20260504190047 | 74 | 223 | 1.7 | 3.5 | 0.00 | 0.00 | 0.00 | 36 | 1014.1 |
| 20260504184551 | 73 | 223 | 2.6 | 7.0 | 0.00 | 0.00 | 0.00 | 36 | 1014.1 |
| 20260504183053 | 73 | 184 | 1.7 | 6.1 | 0.00 | 0.00 | 0.00 | 38 | 1014.2 |
| 20260504181540 | 73 | 237 | 1.7 | 6.1 | 0.00 | 0.00 | 0.00 | 40 | 1014.3 |
| 20260504180041 | 73 | 221 | 1.7 | 6.1 | 0.00 | 0.00 | 0.00 | 44 | 1014.4 |
| 20260504174541 | 73 | 224 | 2.6 | 4.3 | 0.00 | 0.01 | 0.00 | 40 | 1014.6 |
| 20260504173045 | 73 | 0 | 0.9 | 3.5 | 0.00 | 0.01 | 0.00 | 41 | 1014.8 |
| 20260504171544 | 72 | 224 | 0.9 | 3.5 | 0.00 | 0.01 | 0.00 | 41 | 1015.1 |